When you browse on this site, cookies collect data to enhance your experience and personalize the content and advertising you see.
Visit our Privacy Policy to learn more. By continuing to use the site, you agree to this use of cookies and data.
  • In Hungary
  • List of Countries
  • For 7 days
  • Water Temperature
  • Satellite Maps
  • Weather Map
  • News
  • Weather Widgets
  • user-avatar
    Login

    Hourly Weather Novovolynsk

    Today, 24 April, Wednesday

    Time Temperature Precipitation Wind Pressure Humidity
    00:00 +9°C° 0 mm 6 mps 746 mmHg 60%
    01:00 +8°C° 0 mm 6 mps 746 mmHg 59%
    02:00 +8°C° 0 mm 5 mps 746 mmHg 58%
    03:00 +8°C° 0 mm 6 mps 746 mmHg 58%
    04:00 +8°C° 0 mm 6 mps 746 mmHg 57%
    05:00 +8°C° 0 mm 6 mps 746 mmHg 56%
    06:00 +8°C° 0 mm 6 mps 746 mmHg 56%
    07:00 +9°C° 0 mm 7 mps 746 mmHg 55%
    08:00 +10°C° 0 mm 7 mps 747 mmHg 57%
    09:00 +11°C° 0 mm 8 mps 747 mmHg 55%
    10:00 +12°C° 0 mm 8 mps 747 mmHg 52%
    11:00 +13°C° 0 mm 8 mps 747 mmHg 50%
    12:00 +15°C° 0 mm 8 mps 747 mmHg 49%
    13:00 +16°C° 0 mm 8 mps 746 mmHg 49%
    14:00 +17°C° 0 mm 7 mps 746 mmHg 51%
    15:00 +17°C° 0 mm 7 mps 746 mmHg 52%
    16:00 +17°C° 0 mm 7 mps 746 mmHg 53%
    17:00 +17°C° 0 mm 7 mps 746 mmHg 54%
    18:00 +15°C° 0 mm 6 mps 746 mmHg 58%
    19:00 +14°C° 0 mm 6 mps 745 mmHg 62%
    20:00 +12°C° 0 mm 5 mps 745 mmHg 65%
    21:00 +12°C° 0 mm 5 mps 745 mmHg 65%
    22:00 +10°C° 0 mm 5 mps 746 mmHg 65%
    23:00 +9°C° 0 mm 5 mps 746 mmHg 64%

    Tomorrow, 25 April, Thursday

    Time Temperature Precipitation Wind Pressure Humidity
    00:00 +9°C° 0 mm 5 mps 746 mmHg 64%
    01:00 +10°C° 0 mm 4 mps 745 mmHg 65%
    02:00 +10°C° 0 mm 4 mps 745 mmHg 65%
    03:00 +8°C° 0 mm 4 mps 745 mmHg 67%
    04:00 +8°C° 0 mm 4 mps 745 mmHg 69%
    05:00 +7°C° 0 mm 4 mps 745 mmHg 71%
    06:00 +8°C° 0.1 mm 4 mps 745 mmHg 71%
    07:00 +10°C° 0.1 mm 4 mps 745 mmHg 70%
    08:00 +12°C° 0.1 mm 4 mps 745 mmHg 69%
    09:00 +14°C° 0 mm 4 mps 745 mmHg 65%
    10:00 +16°C° 0 mm 5 mps 745 mmHg 61%
    11:00 +19°C° 0 mm 5 mps 745 mmHg 57%
    12:00 +20°C° 0 mm 5 mps 745 mmHg 57%
    13:00 +20°C° 0 mm 5 mps 745 mmHg 56%
    14:00 +21°C° 0 mm 5 mps 745 mmHg 55%
    15:00 +21°C° 0 mm 5 mps 744 mmHg 56%
    16:00 +21°C° 0 mm 5 mps 744 mmHg 57%
    17:00 +20°C° 0 mm 5 mps 744 mmHg 57%
    18:00 +19°C° 0 mm 5 mps 743 mmHg 63%
    19:00 +17°C° 0 mm 4 mps 743 mmHg 69%
    20:00 +14°C° 0 mm 4 mps 743 mmHg 75%
    21:00 +14°C° 0.1 mm 4 mps 743 mmHg 78%
    22:00 +13°C° 0.1 mm 4 mps 743 mmHg 81%
    23:00 +13°C° 0.1 mm 4 mps 743 mmHg 85%

    Day after tomorrow, 26 April, Friday

    Time Temperature Precipitation Wind Pressure Humidity
    00:00 +12°C° 0.1 mm 4 mps 743 mmHg 87%
    01:00 +12°C° 0.1 mm 3 mps 743 mmHg 90%
    02:00 +12°C° 0.1 mm 3 mps 743 mmHg 93%
    03:00 +12°C° 0 mm 3 mps 742 mmHg 93%
    04:00 +11°C° 0 mm 3 mps 742 mmHg 93%
    05:00 +11°C° 0 mm 3 mps 742 mmHg 93%
    06:00 +13°C° 0 mm 4 mps 742 mmHg 87%
    07:00 +14°C° 0 mm 4 mps 742 mmHg 81%
    08:00 +16°C° 0 mm 5 mps 742 mmHg 75%
    09:00 +19°C° 0 mm 5 mps 741 mmHg 70%
    10:00 +21°C° 0 mm 6 mps 741 mmHg 64%
    11:00 +23°C° 0 mm 6 mps 741 mmHg 59%
    12:00 +23°C° 0.7 mm 6 mps 741 mmHg 57%
    13:00 +24°C° 0.7 mm 6 mps 740 mmHg 55%
    14:00 +24°C° 0.7 mm 6 mps 740 mmHg 53%
    15:00 +23°C° 0.7 mm 5 mps 739 mmHg 57%
    16:00 +22°C° 0.7 mm 5 mps 739 mmHg 61%
    17:00 +22°C° 0.7 mm 4 mps 739 mmHg 65%
    18:00 +21°C° 0.1 mm 4 mps 739 mmHg 68%
    19:00 +20°C° 0.1 mm 4 mps 738 mmHg 71%
    20:00 +19°C° 0.1 mm 4 mps 738 mmHg 73%
    21:00 +18°C° 0.9 mm 4 mps 738 mmHg 77%
    22:00 +17°C° 0.9 mm 4 mps 738 mmHg 81%
    23:00 +15°C° 0.9 mm 4 mps 738 mmHg 85%

    27 April, Saturday

    Time Temperature Precipitation Wind Pressure Humidity
    00:00 +15°C° 0.1 mm 4 mps 738 mmHg 86%
    01:00 +14°C° 0.1 mm 4 mps 738 mmHg 88%
    02:00 +14°C° 0.1 mm 4 mps 738 mmHg 89%
    03:00 +14°C° 0 mm 3 mps 738 mmHg 89%
    04:00 +13°C° 0 mm 3 mps 738 mmHg 90%
    05:00 +13°C° 0 mm 3 mps 738 mmHg 90%
    06:00 +16°C° 0 mm 3 mps 738 mmHg 85%
    07:00 +18°C° 0 mm 4 mps 738 mmHg 80%
    08:00 +19°C° 0 mm 5 mps 738 mmHg 75%
    09:00 +20°C° 0 mm 5 mps 738 mmHg 71%
    10:00 +21°C° 0 mm 5 mps 738 mmHg 67%
    11:00 +21°C° 0 mm 4 mps 738 mmHg 64%
    12:00 +21°C° 0 mm 4 mps 738 mmHg 61%
    13:00 +21°C° 0 mm 3 mps 738 mmHg 59%
    14:00 +23°C° 0 mm 2 mps 738 mmHg 57%
    15:00 +23°C° 0 mm 2 mps 737 mmHg 57%
    16:00 +23°C° 0 mm 1 mps 737 mmHg 57%
    17:00 +23°C° 0 mm 1 mps 737 mmHg 57%
    18:00 +22°C° 2 mm 1 mps 737 mmHg 66%
    19:00 +20°C° 2 mm 1 mps 737 mmHg 76%
    20:00 +18°C° 2 mm 1 mps 737 mmHg 85%
    21:00 +18°C° 1.8 mm 1 mps 737 mmHg 86%
    22:00 +16°C° 1.8 mm 2 mps 737 mmHg 87%
    23:00 +16°C° 1.8 mm 2 mps 737 mmHg 88%

    28 April, Sunday

    Time Temperature Precipitation Wind Pressure Humidity
    00:00 +15°C° 0 mm 2 mps 737 mmHg 90%
    01:00 +15°C° 0 mm 2 mps 737 mmHg 92%
    02:00 +14°C° 0 mm 2 mps 737 mmHg 94%
    03:00 +14°C° 0.2 mm 2 mps 737 mmHg 95%
    04:00 +13°C° 0.2 mm 3 mps 737 mmHg 96%
    05:00 +12°C° 0.2 mm 4 mps 737 mmHg 97%
    06:00 +13°C° 0 mm 4 mps 737 mmHg 94%
    07:00 +14°C° 0 mm 4 mps 737 mmHg 91%
    08:00 +15°C° 0 mm 5 mps 737 mmHg 88%
    09:00 +17°C° 0 mm 4 mps 737 mmHg 81%
    10:00 +18°C° 0 mm 4 mps 737 mmHg 75%
    11:00 +19°C° 0 mm 4 mps 737 mmHg 68%
    12:00 +20°C° 0 mm 4 mps 737 mmHg 62%
    13:00 +21°C° 0 mm 4 mps 737 mmHg 57%
    14:00 +22°C° 0 mm 5 mps 737 mmHg 51%
    15:00 +22°C° 0 mm 4 mps 737 mmHg 52%
    16:00 +22°C° 0 mm 4 mps 737 mmHg 52%
    17:00 +22°C° 0 mm 4 mps 736 mmHg 52%
    18:00 +20°C° 0 mm 3 mps 737 mmHg 58%
    19:00 +19°C° 0 mm 3 mps 737 mmHg 63%
    20:00 +17°C° 0 mm 2 mps 737 mmHg 69%
    21:00 +16°C° 0 mm 3 mps 737 mmHg 73%
    22:00 +14°C° 0 mm 3 mps 737 mmHg 76%
    23:00 +14°C° 0 mm 3 mps 737 mmHg 80%

    29 April, Monday

    Time Temperature Precipitation Wind Pressure Humidity
    00:00 +14°C° 0 mm 3 mps 737 mmHg 82%
    01:00 +13°C° 0 mm 3 mps 737 mmHg 85%
    02:00 +13°C° 0 mm 3 mps 737 mmHg 87%
    03:00 +13°C° 0 mm 3 mps 738 mmHg 90%
    04:00 +13°C° 0 mm 4 mps 738 mmHg 92%
    05:00 +13°C° 0 mm 4 mps 738 mmHg 94%
    06:00 +13°C° 0.3 mm 5 mps 738 mmHg 92%
    07:00 +14°C° 0.3 mm 5 mps 738 mmHg 89%
    08:00 +14°C° 0.3 mm 6 mps 739 mmHg 86%
    09:00 +13°C° 0.4 mm 6 mps 739 mmHg 87%
    10:00 +13°C° 0.4 mm 6 mps 739 mmHg 88%
    11:00 +11°C° 0.4 mm 6 mps 739 mmHg 88%
    12:00 +11°C° 0.2 mm 7 mps 739 mmHg 87%
    13:00 +10°C° 0.2 mm 7 mps 740 mmHg 86%
    14:00 +10°C° 0.2 mm 7 mps 740 mmHg 85%
    15:00 +10°C° 0.1 mm 7 mps 740 mmHg 85%
    16:00 +9°C° 0.1 mm 7 mps 740 mmHg 85%
    17:00 +8°C° 0.1 mm 7 mps 740 mmHg 85%
    18:00 +8°C° 0.1 mm 7 mps 740 mmHg 86%
    19:00 +6°C° 0.1 mm 7 mps 740 mmHg 87%
    20:00 +6°C° 0.1 mm 7 mps 741 mmHg 88%
    21:00 +6°C° 0.4 mm 7 mps 741 mmHg 89%
    22:00 +5°C° 0.4 mm 7 mps 741 mmHg 90%
    23:00 +5°C° 0.4 mm 7 mps 741 mmHg 90%
    Show more